User: anonymous   Login
Location: Pine Mountain Observatory
(43.7910°N, 120.9377°W)
Time: 01:34:03
(UTC-08:00)
Language:

IDEFIX/ARIANE 42P - Orbit

View from above orbital plane
View from above orbital plane
View from above satellite
View from above satellite

Ground track
Ground track

The orbit data is extracted from the following two-line orbital elements,

1 27422U 02021B   14330.75544498  .00000204  00000-0  96480-4 0  6511
2 27422 098.2815 005.3559 0013561 121.7501 353.1029 14.29092510653350
Epoch (UTC): 26 November 2014 18:07:50
Eccentricity: 0.0013561
inclination: 98.2815°
perigee height: 785 km
apogee height: 804 km
right ascension of ascending node: 5.3559°
argument of perigee: 121.7501°
revolutions per day: 14.29092510
mean anomaly at epoch: 353.1029°
orbit number at epoch: 65335

The dashed part of the orbit path shows where the satellite is in the earth's shadow,  

DLR